LROD Weather Reports


Display with metric or nautical units.
time (UTC)temp
F
wind
direction
speed
MPH
gust
MPH
rain 1hr
in
rain 24hr
in
rain mn
in
humidity
%
barometer
mb
20260507220329 59 120 1.0 0.0 0.00 0.00 0.00 94 1015.0
20260507214829 59 0 0.0 0.0 0.00 0.00 0.00 94 1015.0
20260507213331 59 0 0.0 0.0 0.00 0.00 0.00 94 1015.0
20260507211829 59 0 0.0 0.0 0.00 0.00 0.00 94 1015.0
20260507210330 59 0 0.0 0.0 0.00 0.00 0.00 94 1015.0
20260507204829 59 0 0.0 0.0 0.00 0.00 0.00 94 1015.0
20260507203330 59 0 0.0 0.0 0.00 0.00 0.00 94 1015.0
20260507201829 59 0 0.0 0.0 0.00 0.00 0.00 94 1015.0
20260507200330 59 0 0.0 0.0 0.00 0.00 0.00 94 1015.0
20260507194835 61 180 1.0 0.0 0.00 0.00 0.00 88 1015.0
20260507193329 61 180 1.0 0.0 0.00 0.00 0.00 88 1015.0
20260507191829 61 160 6.0 0.0 0.00 0.00 0.00 88 1015.0
20260507190330 61 160 6.0 0.0 0.00 0.00 0.00 88 1015.0
20260507184831 61 150 5.0 0.0 0.00 0.00 0.00 88 1014.0
20260507183329 61 150 5.0 0.0 0.00 0.00 0.00 88 1014.0
20260507181829 61 150 3.0 0.0 0.00 0.00 0.00 88 1014.0
20260507180329 61 150 3.0 0.0 0.00 0.00 0.00 88 1014.0
20260507174829 61 150 3.0 0.0 0.00 0.00 0.00 88 1014.0
20260507173330 61 150 3.0 0.0 0.00 0.00 0.00 88 1014.0
20260507171830 63 170 6.0 0.0 0.00 0.00 0.00 83 1014.0
20260507170329 63 180 6.0 0.0 0.00 0.00 0.00 83 1014.0
20260507164830 63 170 7.0 0.0 0.00 0.00 0.00 83 1014.0
20260507163330 63 170 7.0 0.0 0.00 0.00 0.00 83 1014.0
20260507161829 64 170 8.0 0.0 0.00 0.00 0.00 78 1014.0
20260507160329 64 170 8.0 0.0 0.00 0.00 0.00 78 1014.0
20260507154829 64 190 8.0 0.0 0.00 0.00 0.00 73 1014.0
20260507153329 64 190 8.0 0.0 0.00 0.00 0.00 73 1014.0
20260507151829 64 210 8.0 0.0 0.00 0.00 0.00 73 1014.0
20260507150329 64 210 8.0 0.0 0.00 0.00 0.00 73 1014.0
20260507144829 64 210 8.0 0.0 0.00 0.00 0.00 78 1015.0
20260507143331 64 210 8.0 0.0 0.00 0.00 0.00 78 1015.0
20260507141829 63 210 8.0 0.0 0.00 0.00 0.00 83 1015.0
20260507140329 63 210 8.0 0.0 0.00 0.00 0.00 83 1015.0
20260507134830 63 200 9.0 0.0 0.00 0.00 0.00 83 1015.0
20260507133329 63 200 9.0 0.0 0.00 0.00 0.00 83 1015.0
20260507131826 63 190 7.0 0.0 0.00 0.00 0.00 83 1015.0
20260507130329 63 190 7.0 0.0 0.00 0.00 0.00 83 1015.0
20260507124826 63 180 7.0 0.0 0.00 0.00 0.00 83 1015.0
20260507123407 63 180 7.0 0.0 0.00 0.00 0.00 83 1015.0
20260507121829 63 190 10.0 0.0 0.00 0.00 0.00 88 1015.0
20260507120329 63 190 10.0 0.0 0.00 0.00 0.00 88 1015.0
20260507114829 63 200 11.0 0.0 0.00 0.00 0.00 88 1015.0
20260507113347 63 210 13.0 0.0 0.00 0.00 0.00 83 1015.0
20260507111829 63 210 13.0 0.0 0.00 0.00 0.00 83 1015.0
20260507110329 63 210 13.0 0.0 0.00 0.00 0.00 83 1015.0
20260507104829 64 220 13.0 0.0 0.00 0.00 0.00 78 1015.0
20260507103329 64 220 13.0 0.0 0.00 0.00 0.00 78 1015.0
20260507101829 64 190 11.0 0.0 0.00 0.00 0.00 64 1015.0
20260507100330 64 190 11.0 0.0 0.00 0.00 0.00 64 1015.0
20260507094829 64 180 9.0 0.0 0.00 0.00 0.00 64 1015.0
20260507093330 64 180 9.0 0.0 0.00 0.00 0.00 64 1015.0
20260507091830 64 200 11.0 0.0 0.00 0.00 0.00 64 1014.0
20260507090329 64 200 11.0 0.0 0.00 0.00 0.00 64 1014.0
20260507084829 66 200 14.0 0.0 0.00 0.00 0.00 56 1014.0
20260507083330 66 200 14.0 0.0 0.00 0.00 0.00 56 1014.0
20260507081829 66 200 11.0 0.0 0.00 0.00 0.00 56 1014.0
20260507080330 66 200 11.0 0.0 0.00 0.00 0.00 56 1014.0
20260507074830 66 210 8.0 0.0 0.00 0.00 0.00 52 1014.0
20260507073329 66 210 8.0 0.0 0.00 0.00 0.00 52 1014.0
20260507071829 66 230 5.0 0.0 0.00 0.00 0.00 60 1014.0
20260507070329 66 230 5.0 0.0 0.00 0.00 0.00 60 1014.0
20260507064829 64 1.0 0.0 0.00 0.00 0.00 60 1014.0
20260507063329 64 1.0 0.0 0.00 0.00 0.00 60 1014.0
20260507061839 61 100 5.0 0.0 0.00 0.00 0.00 63 1013.0
20260507060329 61 100 5.0 0.0 0.00 0.00 0.00 63 1013.0
20260507054829 61 110 6.0 0.0 0.00 0.00 0.00 63 1013.0
20260507053337 61 110 6.0 0.0 0.00 0.00 0.00 63 1013.0
20260507051830 59 100 6.0 0.0 0.00 0.00 0.00 63 1013.0
20260507050329 59 100 6.0 0.0 0.00 0.00 0.00 63 1013.0
20260507044826 57 150 11.0 0.0 0.00 0.00 0.00 67 1012.0
20260507043329 57 150 11.0 0.0 0.00 0.00 0.00 67 1012.0
20260507041829 59 100 7.0 0.0 0.00 0.00 0.00 63 1012.0
20260507040329 59 100 7.0 0.0 0.00 0.00 0.00 63 1012.0
20260507034826 57 90 7.0 0.0 0.00 0.00 0.00 67 1012.0
20260507033328 57 90 7.0 0.0 0.00 0.00 0.00 67 1012.0
20260507031829 59 110 5.0 0.0 0.00 0.00 0.00 63 1012.0
20260507030329 59 110 5.0 0.0 0.00 0.00 0.00 63 1012.0
20260507024829 57 90 7.0 0.0 0.00 0.00 0.00 67 1012.0
20260507023329 57 90 7.0 0.0 0.00 0.00 0.00 67 1012.0
20260507021829 57 130 6.0 0.0 0.00 0.00 0.00 67 1012.0
20260507020329 57 140 6.0 0.0 0.00 0.00 0.00 67 1012.0
20260507014829 59 2.0 0.0 0.00 0.00 0.00 63 1012.0
20260507013329 59 2.0 0.0 0.00 0.00 0.00 63 1012.0
20260507011829 59 210 7.0 0.0 0.00 0.00 0.00 63 1012.0
20260507010329 59 210 7.0 0.0 0.00 0.00 0.00 63 1012.0
20260507004829 59 100 10.0 0.0 0.00 0.00 0.00 68 1011.0
20260507003329 59 100 10.0 0.0 0.00 0.00 0.00 68 1011.0
20260507001829 59 100 9.0 0.0 0.00 0.00 0.00 68 1011.0
20260507000329 59 100 9.0 0.0 0.00 0.00 0.00 68 1011.0
20260506234829 59 100 9.0 0.0 0.00 0.00 0.00 68 1011.0
20260506233329 59 100 9.0 0.0 0.00 0.00 0.00 68 1011.0
20260506231830 59 100 8.0 0.0 0.00 0.00 0.00 68 1011.0
20260506230329 59 100 8.0 0.0 0.00 0.00 0.00 68 1011.0
20260506224825 61 100 9.0 0.0 0.00 0.00 0.00 63 1011.0
20260506223329 61 100 9.0 0.0 0.00 0.00 0.00 63 1011.0
20260506221829 61 110 7.0 0.0 0.00 0.00 0.00 63 1011.0